Henderson, KY

1:14 AM CDT on July 20, 2019 (GMT -0500)
Henderson City-County

Weather History for KEHR - May, 2019

Change the Weather History Date:

Friday, May 10, 2019

  Actual Average Record
Temperature  
Mean Temperature 56 °F -  
Max Temperature 60 °F 75 °F 92 °F (1936)
Min Temperature 52 °F 50 °F 33 °F (1947)
Degree Days  
Heating Degree Days 9    
Growing Degree Days 6 (Base 50)    
Moisture  
Dew Point 48 °F    
Average Humidity 74    
Maximum Humidity 94    
Minimum Humidity 60    
Precipitation  
Precipitation 0.00 in - - ()
Sea Level Pressure  
Sea Level Pressure 30.12 in    
Wind  
Wind Speed 8 mph (NNW)    
Max Wind Speed 12 mph    
Max Gust Speed -    
Visibility 10 miles    
Events Rain    
Averages and records for this station are not official NWS values.
T = Trace of Precipitation, MM = Missing Value Source: NWS Daily Summary

Daily Weather History Graph

Daily Weather History Graph

Search for Another Location

Airport or City:

Astronomy

May. 10, 2019 Rise Set
Actual Time 5:45 AM CDT 7:49 PM CDT
Civil Twilight 5:16 AM CDT 8:18 PM CDT
Nautical Twilight 4:41 AM CDT 8:53 PM CDT
Astronomical Twilight 4:03 AM CDT 9:32 PM CDT
Moon 10:46 AM CDT (5/10) 12:41 AM CDT (5/10)
Length of Visible Light 15h 01m
Length of Day
14h 03m
Waxing Crescent, 35% of the Moon is Illuminated
May 10
Waxing Crescent
May 11
First Quarter
May 18
Full
May 26
Last Quarter
Jun 3
New

Hourly Weather History & Observations

Time (CDT) Temp. Dew Point Humidity Pressure Visibility Wind Dir Wind Speed Gust Speed Precip Events Conditions
12:24 AM 60.8 °F 55.4 °F 82% 29.99 in 10.0 mi NNW 5.8 mph - 0.00 in Rain Light Rain
12:56 AM 60.1 °F 55.0 °F 83% 30.03 in 10.0 mi NNW 10.4 mph - 0.00 in   Mostly Cloudy
1:29 AM 59.0 °F 55.4 °F 88% 30.00 in 10.0 mi NW 11.5 mph - N/A   Overcast
1:56 AM 57.9 °F 53.1 °F 84% 30.04 in 10.0 mi NNW 9.2 mph - N/A   Overcast
2:03 AM 57.2 °F 53.6 °F 88% 30.01 in 10.0 mi NNW 9.2 mph - N/A   Overcast
2:11 AM 57.2 °F 53.6 °F 88% 30.01 in 10.0 mi NNW 8.1 mph - N/A   Overcast
2:42 AM 57.2 °F 53.6 °F 88% 30.02 in 9.0 mi NNW 10.4 mph - 0.00 in Rain Light Rain
2:56 AM 55.9 °F 53.1 °F 90% 30.05 in 10.0 mi NNW 8.1 mph - 0.00 in Rain Light Rain
3:40 AM 53.6 °F 51.8 °F 94% 30.04 in 10.0 mi NNW 6.9 mph - 0.00 in   Overcast
3:56 AM 54.0 °F 50.0 °F 86% 30.07 in 10.0 mi NNW 8.1 mph - 0.00 in   Overcast
4:40 AM 53.6 °F 48.2 °F 82% 30.07 in 10.0 mi NW 9.2 mph - N/A   Overcast
4:56 AM 53.1 °F 48.0 °F 83% 30.10 in 10.0 mi NNW 6.9 mph - N/A   Overcast
5:56 AM 53.1 °F 46.9 °F 80% 30.11 in 10.0 mi NNW 6.9 mph - N/A   Overcast
6:56 AM 52.0 °F 45.0 °F 77% 30.12 in 10.0 mi NNW 9.2 mph - N/A   Mostly Cloudy
7:56 AM 52.0 °F 44.1 °F 74% 30.15 in 10.0 mi NNW 8.1 mph - N/A   Overcast
8:53 AM 53.6 °F 44.6 °F 72% 30.14 in 10.0 mi NW 9.2 mph - N/A   Overcast
8:56 AM 53.1 °F 44.1 °F 71% 30.17 in 10.0 mi NNW 9.2 mph - N/A   Overcast
9:31 AM 53.6 °F 42.8 °F 67% 30.15 in 10.0 mi NW 6.9 mph - N/A   Overcast
9:56 AM 54.0 °F 43.0 °F 66% 30.17 in 10.0 mi NW 9.2 mph - N/A   Mostly Cloudy
10:56 AM 55.9 °F 44.1 °F 64% 30.18 in 10.0 mi Variable 5.8 mph - N/A   Partly Cloudy
11:56 AM 57.9 °F 46.0 °F 65% 30.18 in 10.0 mi NW 8.1 mph - N/A   Overcast
12:56 PM 57.9 °F 45.0 °F 62% 30.19 in 10.0 mi NW 8.1 mph - N/A   Overcast
1:56 PM 59.0 °F 46.0 °F 62% 30.19 in 10.0 mi NNW 4.6 mph - N/A   Overcast
2:56 PM 59.0 °F 46.0 °F 62% 30.18 in 10.0 mi NNW 5.8 mph - N/A   Mostly Cloudy
3:30 PM 59.0 °F 46.4 °F 63% 30.14 in 10.0 mi NNW 8.1 mph - N/A   Overcast
3:51 PM 59.0 °F 46.4 °F 63% 30.14 in 10.0 mi NNW 6.9 mph - N/A   Overcast
3:56 PM 59.0 °F 46.0 °F 62% 30.18 in 10.0 mi Variable 5.8 mph - N/A   Overcast
4:56 PM 60.1 °F 46.0 °F 60% 30.17 in 10.0 mi NW 6.9 mph - N/A   Overcast
5:56 PM 59.0 °F 46.0 °F 62% 30.16 in 10.0 mi NNW 8.1 mph - N/A   Overcast
6:56 PM 57.9 °F 46.0 °F 65% 30.16 in 10.0 mi North 4.6 mph - N/A   Partly Cloudy
7:56 PM 55.9 °F 46.0 °F 69% 30.17 in 10.0 mi North 6.9 mph - N/A   Clear
8:56 PM 55.0 °F 45.0 °F 69% 30.18 in 10.0 mi North 8.1 mph - N/A   Overcast
9:22 PM 55.4 °F 44.6 °F 67% 30.14 in 10.0 mi NNE 9.2 mph - N/A   Overcast
9:56 PM 54.0 °F 45.0 °F 72% 30.19 in 10.0 mi NNE 9.2 mph - N/A   Overcast
10:56 PM 53.1 °F 45.0 °F 74% 30.17 in 10.0 mi NNE 10.4 mph - N/A   Overcast
11:19 PM 53.6 °F 44.6 °F 72% 30.13 in 10.0 mi NE 10.4 mph - N/A   Mostly Cloudy
11:56 PM 53.1 °F 44.1 °F 71% 30.16 in 10.0 mi NE 8.1 mph - N/A   Overcast